Regional Weather Roundup
Issued by NWS

Home | Current Version | Previous Version | Text Only | Print | Product List | Glossary On
Versions: 1 2 3 4 5 6 7 8 9 10 11 12 13 14 15 16 17 18 19 20 21 22 23 24 25 26 27 28 29 30 31 32 33 34 35 36 37 38 39 40 41 42 43 44 45 46 47 48 49 50
000
ASUS45 KPSR 310210
RWRAZ

ARIZONA REGIONAL HOURLY WEATHER ROUNDUP
NATIONAL WEATHER SERVICE PHOENIX AZ
700 PM MST WED JUL 30 2014

NOTE: FAIR INDICATES FEW OR NO CLOUDS BELOW 12,000 FEET WITH NO
SIGNIFICANT WEATHER AND/OR OBSTRUCTIONS TO VISIBILITY.

AZZ001>003-036-310300-
NORTHWEST ARIZONA

CITY           SKY/WX    TMP DP  RH WIND       PRES   REMARKS
BULLHEAD CITY  CLEAR    109  50  14 CALM      29.73S HX 106
KINGMAN        CLEAR     97  47  18 N15       29.98R
$$

AZZ004>008-015-016-018-310300-
NORTH CENTRAL ARIZONA

CITY           SKY/WX    TMP DP  RH WIND       PRES   REMARKS
GRAND CANYON   PTCLDY    80  48  32 VRB5      30.24S
WILLIAMS       CLEAR     77  45  31 CALM      30.32R
PRESCOTT       PTCLDY    88  45  22 SW9       30.13R
FLAGSTAFF      CLEAR     79  43  27 W10       30.29R
PAYSON         PTCLDY    88  46  23 SW8G14    30.15R
PAGE           PTCLDY    90  50  25 NW12G17   30.03R
$$

AZZ009>014-017-310300-
NORTHEAST ARIZONA

CITY           SKY/WX    TMP DP  RH WIND       PRES   REMARKS
WINSLOW        PTCLDY    91  45  20 W5        30.07S
SAINT JOHNS    PTCLDY    86  44  23 W12       30.13R
WINDOW ROCK    CLEAR     84  42  22 W8        30.23R
SHOW LOW       PTCLDY    79  45  29 W7        30.24S
$$

AZZ023-310300-
GREATER PHOENIX AREA

CITY           SKY/WX    TMP DP  RH WIND       PRES   REMARKS
PHOENIX        MOCLDY   107  49  14 SW8       29.76S HX 104
BUCKEYE          N/A    104  55  20 S7        29.77S HX 103
GLENDALE       PTCLDY   108  50  14 S13       29.77S HX 104
LUKE AFB       NOT AVBL
DEER VALLEY    CLEAR    104  49  15 SW13      29.79R HX 101
SCOTTSDALE     CLEAR    105  51  16 SW9       29.81S HX 102
MESA-FALCON    PTCLDY   106  50  15 W6        29.79S HX 103
CHANDLER       PTCLDY   108  48  13 SW7       29.78F HX 104
$$

AZZ027-028-310300-
SOUTHWEST MARICOPA COUNTY AND PINAL COUNTY

CITY           SKY/WX    TMP DP  RH WIND       PRES   REMARKS
CASA GRANDE    PTCLDY   106  52  16 NW8       29.83S HX 103
GILA BEND      PTCLDY   108  46  12 W7        29.78S HX 103
$$

AZZ503-504-507>509-310300-
SOUTHEAST ARIZONA

CITY           SKY/WX    TMP DP  RH WIND       PRES   REMARKS
TUCSON         CLOUDY    90  54  29 S17       29.97R
DAVIS-MONTHAN  CLOUDY    88  56  33 SW14      29.97R
RYAN FIELD       N/A     97  52  21 SE17G24   29.95R
NOGALES        CLOUDY    72  65  78 CALM      30.10F
SIERRA VISTA   CLOUDY    82  48  30 SW15      30.14S
SAFFORD        CLEAR     98  46  17 W16       29.92R
$$

AZZ020-021-025-026-031-310300-
SOUTHWEST ARIZONA

CITY           SKY/WX    TMP DP  RH WIND       PRES   REMARKS
YUMA           PTCLDY   111  46  11 SW7       29.72S HX 106
$$

CAZ031-033-041-043-047-048-061-310300-
SOUTHERN CALIFORNIA

CITY           SKY/WX    TMP DP  RH WIND       PRES   REMARKS
DOWNTOWN L.A.  MOSUNNY   76  58  53 VRB3      29.89S
L.A. AIRPORT   MOSUNNY   71  60  68 W15       29.90F
SAN DIEGO      PTCLDY    76  64  66 W9        29.91S
BURBANK        MOSUNNY   82  56  40 S6        29.89S
ONTARIO        MOCLDY    89  59  36 SW13      29.90R
RIVERSIDE      CLEAR     91  57  31 W8        29.89S
PALM SPRINGS   CLEAR    108  48  13 NW17G25   29.75R HX 104
EL CENTRO NAS  PTCLDY   111  47  12 SE5       29.68S HX 107
IMPERIAL       MOCLDY   111  50  13 E5        29.68S HX 108
BLYTHE           N/A    N/A N/A N/A MISG      29.70S
NEEDLES        CLEAR    110  52  14 E7        29.74S HX 107
$$

NVZ020-UTZ003-310300-
SOUTHERN NEVADA-UTAH

CITY           SKY/WX    TMP DP  RH WIND       PRES   REMARKS
LAS VEGAS      PTCLDY   102  48  16 S3        29.83S
SALT LAKE CITY PTCLDY    78  54  43 E10       30.13R
$$

NMZ009-TXZ055-310300-
NEW MEXICO-WEST TEXAS

CITY           SKY/WX    TMP DP  RH WIND       PRES   REMARKS
ALBUQUERQUE    MOCLDY    81  61  50 E20       30.11S
EL PASO        TSTM      90  54  29 SE17      30.01R
$$


........................KEY........................
SKY/WX - SKY CONDITION/WEATHER
TMP    - TEMPERATURE IN FAHRENHEIT
DP     - DEW POINT IN FAHRENHEIT
RH     - RELATIVE HUMIDITY IN PERCENT
WIND   - DIRECTION AND SPEED IN MILES PER HOUR (MPH)
VRB    - VARIABLE WIND DIRECTION
PRES   - MEAN SEA LEVEL PRESSURE IN INCHES OF MERCURY
         F - FALLING PRESSURE   R - RISING PRESSURE
         S - STEADY PRESSURE
VSB    - VISIBILITY IN MILES
HX     - HEAT INDEX IN FAHRENHEIT
WCI    - WIND CHILL INDEX IN FAHRENHEIT
TC     - TEMPERATURE IN CELSIUS WHICH IS ALSO KNOWN AS
         TEMPERATURE IN CENTIGRADE
AFB    - AIR FORCE BASE
         LUKE AFB IS LUKE AIR FORCE BASE
         DAVIS-MONTHAN IS DAVIS-MONTHAN AIR FORCE BASE
NAS    - NAVAL AIR STATION
         EL CENTRO NAS IS EL CENTRO NAVAL AIR STATION
N/A    - NOT AVAILABLE


USA.gov is the U.S. government's official web portal to all federal, state and local government web resources and services.